This is the latest recevied weather packets stored in our database for station/object WX4LTG. If no packets are shown the sender has not sent any weather packets the latest 1 day(s).
| Time | Temp. | Humidity | Pressure | Rain* | Wind** | Luminosity | Snow |
|---|---|---|---|---|---|---|---|
| 1778062292 | 15.56° C | 52% | 1013.8 hPa | 0 mm | - | 0 W/m² | - |
| 1778061991 | 15.56° C | 51% | 1013.8 hPa | 0 mm | - | 0 W/m² | - |
| 1778061387 | 15.56° C | 49% | 1013.8 hPa | 0 mm | - | 0 W/m² | - |
| 1778061083 | 15.56° C | 49% | 1014 hPa | 0 mm | - | 0 W/m² | - |
| 1778060478 | 15.56° C | 47% | 1013.6 hPa | 0 mm | - | 0 W/m² | - |
| 1778059571 | 16.11° C | 46% | 1013.6 hPa | 0 mm | - | 0 W/m² | - |
| 1778058966 | 16.11° C | 44% | 1013.6 hPa | 0 mm | - | 0 W/m² | - |
| 1778058361 | 16.67° C | 43% | 1013.5 hPa | 0 mm | - | 0 W/m² | - |
| 1778058057 | 16.67° C | 44% | 1013.6 hPa | 0 mm | - | 0 W/m² | - |
| 1778056541 | 18.33° C | 39% | 1013.5 hPa | 0 mm | - | 0 W/m² | - |
| 1778055935 | 18.33° C | 39% | 1013.6 hPa | 0 mm | - | 0 W/m² | - |
| 1778055329 | 18.89° C | 38% | 1013.5 hPa | 0 mm | - | 0 W/m² | - |
| 1778055026 | 18.33° C | 38% | 1013.3 hPa | 0 mm | - | 0 W/m² | - |
| 1778053815 | 18.89° C | 38% | 1013.3 hPa | 0 mm | - | 0 W/m² | - |
| 1778052907 | 19.44° C | 36% | 1013.2 hPa | 0 mm | - | 0 W/m² | - |
| 1778052301 | 19.44° C | 36% | 1013 hPa | 0 mm | - | 0 W/m² | - |
| 1778051999 | 19.44° C | 36% | 1013.2 hPa | 0 mm | - | 0 W/m² | - |
| 1778051696 | 19.44° C | 36% | 1013.1 hPa | 0 mm | - | 0 W/m² | - |
| 1778051090 | 19.44° C | 36% | 1013.1 hPa | 0 mm | - | 0 W/m² | - |
| 1778050182 | 19.44° C | 35% | 1013.1 hPa | 0 mm | - | 0 W/m² | - |
| 1778049878 | 19.44° C | 35% | 1013.1 hPa | 0 mm | - | 0 W/m² | - |
| 1778049574 | 19.44° C | 35% | 1013.2 hPa | 0 mm | - | 0 W/m² | - |
| 1778049272 | 19.44° C | 35% | 1013.2 hPa | 0 mm | - | 0 W/m² | - |
| 1778048970 | 19.44° C | 35% | 1013 hPa | 0 mm | - | 0 W/m² | - |
| 1778048668 | 19.44° C | 34% | 1012.8 hPa | 0 mm | - | 0 W/m² | - |
* Rain latest hour (hover to see other rain measurements)
** Current wind speed in m/s (hover to see current wind gust speed)